Location: Arcones
(41.1182°N, 3.7238°W)
Time: 13:01:19
(UTC+00:00)

IRIDIUM 106 - Pass Details

Date: 22 March 2026
Orbit: 776 x 780 km, 86.4° (Epoch: 14 April)

Event Time Altitude Azimuth Distance (km) Brightness Sun altitude
Exits shadow 20:50:58 54° 202° (SSW) 939 4.6 -26.5°
Maximum altitude 20:52:08 77° 273° (W) 802 4.4 -26.7°
Drops below altitude 10° 20:57:23 10° 360° (N) 2,338 7.1 -27.6°
Sets 20:59:45 0° 2° (N) 3,270 7.9 -28.0°
